This is the latest recevied weather packets stored in our database for station/object EA3ANS-1. If no packets are shown the sender has not sent any weather packets the latest 10 day(s).
| Time | Temp. | Humidity | Pressure | Rain* | Wind** | Luminosity | Snow |
|---|---|---|---|---|---|---|---|
| 1787942294 | 27.22° C | - | 1014 hPa | 0 mm | 2.24 m/s, 321° | - | - |
| 1787941690 | 27.22° C | - | 1014.2 hPa | 0 mm | 1.79 m/s, 325° | - | - |
| 1787941093 | 27.78° C | - | 1014 hPa | 0 mm | 0.89 m/s, 291° | - | - |
| 1787940495 | 28.33° C | - | 1014 hPa | 0 mm | 4.47 m/s, 325° | - | - |
| 1787939898 | 28.33° C | - | 1014 hPa | 0 mm | 2.24 m/s, 293° | - | - |
| 1787939300 | 28.89° C | - | 1013.9 hPa | 0 mm | 3.58 m/s, 249° | - | - |
| 1787938702 | 28.89° C | - | 1013.9 hPa | 0 mm | 3.58 m/s, 298° | - | - |
| 1787938104 | 28.89° C | - | 1014 hPa | 0 mm | 2.68 m/s, 302° | - | - |
| 1787937497 | 28.89° C | - | 1014 hPa | 0 mm | 2.24 m/s, 301° | - | - |
| 1787936900 | 29.44° C | - | 1014 hPa | 0 mm | 2.68 m/s, 269° | - | - |
| 1787936302 | 29.44° C | - | 1014 hPa | 0 mm | 4.02 m/s, 257° | - | - |
| 1787935705 | 29.44° C | - | 1014.1 hPa | 0 mm | 3.58 m/s, 255° | - | - |
| 1787935107 | 30° C | - | 1014.1 hPa | 0 mm | 2.24 m/s, 198° | - | - |
| 1787934506 | 29.44° C | - | 1014.1 hPa | 0 mm | 3.58 m/s, 270° | - | - |
| 1787933908 | 30° C | - | 1014.1 hPa | 0 mm | 2.24 m/s, 259° | - | - |
| 1787933304 | 30° C | - | 1014.2 hPa | 0 mm | 3.58 m/s, 249° | - | - |
| 1787932707 | 30° C | - | 1014.4 hPa | 0 mm | 4.02 m/s, 242° | - | - |
| 1787932109 | 30.56° C | - | 1014.3 hPa | 0 mm | 2.68 m/s, 226° | - | - |
| 1787931512 | 30.56° C | - | 1014.2 hPa | 0 mm | 4.02 m/s, 250° | - | - |
| 1787930914 | 30.56° C | - | 1014.2 hPa | 0 mm | 0.89 m/s, 250° | - | - |
| 1787930317 | 30.56° C | - | 1014.2 hPa | 0 mm | 3.13 m/s, 297° | - | - |
| 1787929719 | 30.56° C | - | 1014.3 hPa | 0 mm | 3.13 m/s, 318° | - | - |
| 1787929112 | 30° C | - | 1014.2 hPa | 0 mm | 3.58 m/s, 240° | - | - |
| 1787928515 | 30.56° C | - | 1014.2 hPa | 0 mm | 3.13 m/s, 276° | - | - |
| 1787927917 | 30° C | - | 1014.3 hPa | 0 mm | 4.02 m/s, 269° | - | - |
* Rain latest hour (hover to see other rain measurements)
** Current wind speed in m/s (hover to see current wind gust speed)